Location: Babice
(50.3480°N, 22.9363°E)
Time: 12:39:24
(UTC+00:00)

Aureole 1 Rocket - Pass Details

Date: 14 July 2020
Orbit: 377 x 1380 km, 73.9° (Epoch: 07 August)

Event Time Altitude Azimuth Distance (km) Brightness Sun altitude
Exits shadow 00:43:20 17° 196° (SSW) 1,672 4.7 -12.6°
Maximum altitude 00:46:57 79° 111° (ESE) 810 3.6 -12.3°
Drops below altitude 10° 00:53:13 10° 26° (NNE) 2,743 7.9 -11.7°
Sets 00:56:09 0° 26° (NNE) 3,862 9.2 -11.5°
